This is the latest recevied weather packets stored in our database for station/object KA1AL. If no packets are shown the sender has not sent any weather packets the latest 10 day(s).
| Time | Temp. | Humidity | Pressure | Rain* | Wind** | Luminosity | Snow |
|---|---|---|---|---|---|---|---|
| 1778158965 | 9.44° C | 88% | 1004.7 hPa | 0 mm | - | 575 W/m² | - |
| 1778158663 | 8.89° C | 88% | 1004.7 hPa | 0 mm | - | 551 W/m² | - |
| 1778158361 | 8.89° C | 89% | 1004.7 hPa | 0 mm | - | 493 W/m² | - |
| 1778158057 | 8.33° C | 89% | 1004.7 hPa | 0 mm | - | 450 W/m² | - |
| 1778157754 | 8.33° C | 91% | 1004.7 hPa | 0 mm | - | 442 W/m² | - |
| 1778157452 | 8.33° C | 90% | 1004.4 hPa | 0 mm | - | 414 W/m² | - |
| 1778157150 | 7.78° C | 90% | 1004.6 hPa | 0 mm | - | 393 W/m² | - |
| 1778156844 | 7.78° C | 91% | 1004.8 hPa | 0 mm | - | 372 W/m² | - |
| 1778156541 | 7.78° C | 91% | 1004.7 hPa | 0 mm | - | 356 W/m² | - |
| 1778156236 | 7.78° C | 92% | 1005 hPa | 0 mm | - | 341 W/m² | - |
| 1778155933 | 7.22° C | 92% | 1004.9 hPa | 0 mm | - | 210 W/m² | - |
| 1778155629 | 7.22° C | 93% | 1005.1 hPa | 0 mm | - | 360 W/m² | - |
| 1778155326 | 6.67° C | 92% | 1004.9 hPa | 0 mm | - | 183 W/m² | - |
| 1778155022 | 6.67° C | 93% | 1004.9 hPa | 0 mm | - | 305 W/m² | - |
| 1778154718 | 6.67° C | 94% | 1005 hPa | 0 mm | - | 101 W/m² | - |
| 1778154414 | 6.11° C | 93% | 1004.7 hPa | 0 mm | - | 125 W/m² | - |
| 1778154111 | 6.11° C | 94% | 1004.7 hPa | 0 mm | - | 105 W/m² | - |
| 1778153808 | 6.11° C | 94% | 1004.6 hPa | 0 mm | - | 119 W/m² | - |
| 1778153505 | 6.11° C | 94% | 1004.6 hPa | 0 mm | - | 119 W/m² | - |
| 1778153203 | 6.11° C | 95% | 1004.6 hPa | 0 mm | - | 103 W/m² | - |
| 1778152899 | 6.11° C | 96% | 1004.8 hPa | 0 mm | - | 95 W/m² | - |
| 1778152597 | 6.11° C | 95% | 1004.6 hPa | 0 mm | - | 104 W/m² | - |
| 1778152293 | 5.56° C | 96% | 1004.9 hPa | 0 mm | - | 114 W/m² | - |
| 1778151990 | 5.56° C | 96% | 1004.7 hPa | 0 mm | - | 93 W/m² | - |
| 1778151686 | 5.56° C | 97% | 1004.9 hPa | 0 mm | - | 75 W/m² | - |
* Rain latest hour (hover to see other rain measurements)
** Current wind speed in m/s (hover to see current wind gust speed)